Time,TemperatureF,DewpointF,PressureIn,WindDirection,WindDirectionDegrees,WindSpeedMPH,WindSpeedGustMPH,Humidity,HourlyPrecipIn,Conditions,Clouds,dailyrainin,SoftwareType,DateUTC
2013-08-16 00:00:00,65.5,64.0,29.96,South,176,3.0,7.0,95,0.17,,,0.19,LWC2 V0.39 B123,2013-08-16 06:00:00,
2013-08-16 00:05:00,65.7,64.2,29.96,SSE,160,3.0,8.0,95,0.17,,,0.20,LWC2 V0.39 B123,2013-08-16 06:05:00,
2013-08-16 00:10:00,65.8,64.3,29.95,SSE,156,6.0,9.0,95,0.10,,,0.20,LWC2 V0.39 B123,2013-08-16 06:10:00,
2013-08-16 00:15:00,66.0,64.2,29.94,SSE,162,3.0,7.0,94,0.05,,,0.20,LWC2 V0.39 B123,2013-08-16 06:15:00,
2013-08-16 00:20:00,66.1,64.3,29.94,SE,137,4.0,8.0,94,0.04,,,0.21,LWC2 V0.39 B123,2013-08-16 06:20:00,
2013-08-16 00:25:00,66.1,64.0,29.94,SSW,203,3.0,8.0,93,0.00,,,0.22,LWC2 V0.39 B123,2013-08-16 06:25:00,
2013-08-16 00:30:00,66.1,64.0,29.94,SSW,197,4.0,10.0,93,0.00,,,0.22,LWC2 V0.39 B123,2013-08-16 06:30:00,
2013-08-16 00:35:00,66.2,64.1,29.94,SW,218,4.0,6.0,93,0.00,,,0.20,LWC2 V0.39 B123,2013-08-16 06:35:00,
2013-08-16 00:40:00,66.3,63.9,29.93,SSW,195,4.0,5.0,92,0.00,,,0.21,LWC2 V0.39 B123,2013-08-16 06:40:00,
2013-08-16 00:45:00,66.3,63.9,29.94,WSW,245,3.0,6.0,92,0.00,,,0.20,LWC2 V0.39 B123,2013-08-16 06:45:00,
2013-08-16 00:50:00,66.3,63.9,29.94,SW,235,5.0,5.0,92,0.00,,,0.21,LWC2 V0.39 B123,2013-08-16 06:50:00,
2013-08-16 00:55:00,66.3,63.9,29.94,SSE,156,1.0,1.0,92,0.00,,,0.20,LWC2 V0.39 B123,2013-08-16 06:55:00,
2013-08-16 01:00:00,66.2,64.1,29.94,South,179,1.0,3.0,93,0.00,,,0.22,LWC2 V0.39 B123,2013-08-16 07:00:00,
2013-08-16 01:05:00,66.1,64.0,29.95,South,175,0.0,2.0,93,0.00,,,0.21,LWC2 V0.39 B123,2013-08-16 07:05:00,
2013-08-16 01:10:00,66.0,63.9,29.95,NW,307,0.0,2.0,93,0.00,,,0.22,LWC2 V0.39 B123,2013-08-16 07:10:00,
2013-08-16 01:15:00,65.8,63.7,29.95,NE,53,0.0,0.0,93,0.00,,,0.21,LWC2 V0.39 B123,2013-08-16 07:15:00,
2013-08-16 01:20:00,65.7,63.9,29.95,NE,50,0.0,0.0,94,0.00,,,0.20,LWC2 V0.39 B123,2013-08-16 07:20:00,
2013-08-16 01:25:00,65.6,63.8,29.96,ENE,63,3.0,3.0,94,0.00,,,0.21,LWC2 V0.39 B123,2013-08-16 07:25:00,
2013-08-16 01:30:00,65.7,64.2,29.97,NNE,14,0.0,3.0,95,0.00,,,0.20,LWC2 V0.39 B123,2013-08-16 07:30:00,
2013-08-16 01:35:00,66.0,64.5,29.97,NNE,13,0.0,1.0,95,0.00,,,0.20,LWC2 V0.39 B123,2013-08-16 07:35:00,
2013-08-16 01:40:00,66.0,64.5,29.97,NNE,32,1.0,2.0,95,0.00,,,0.20,LWC2 V0.39 B123,2013-08-16 07:40:00,
2013-08-16 01:45:00,66.1,64.6,29.97,NNE,32,0.0,0.0,95,0.00,,,0.20,LWC2 V0.39 B123,2013-08-16 07:45:00,
2013-08-16 01:50:00,66.1,64.6,29.97,NNE,33,0.0,0.0,95,0.00,,,0.21,LWC2 V0.39 B123,2013-08-16 07:50:00,
2013-08-16 01:55:00,66.1,64.3,29.98,NNE,33,0.0,0.0,94,0.00,,,0.21,LWC2 V0.39 B123,2013-08-16 07:55:00,
2013-08-16 02:00:00,66.3,64.8,29.98,North,4,0.0,0.0,95,0.00,,,0.21,LWC2 V0.39 B123,2013-08-16 08:00:00,
2013-08-16 02:05:00,66.6,65.1,29.98,NNE,29,0.0,1.0,95,0.00,,,0.20,LWC2 V0.39 B123,2013-08-16 08:05:00,
2013-08-16 02:10:00,66.8,65.3,29.98,NNE,18,0.0,1.0,95,0.00,,,0.22,LWC2 V0.39 B123,2013-08-16 08:10:00,
2013-08-16 02:15:00,66.9,65.4,29.99,North,11,0.0,2.0,95,0.00,,,0.21,LWC2 V0.39 B123,2013-08-16 08:15:00,
2013-08-16 02:20:00,66.9,65.4,29.99,NNE,25,0.0,1.0,95,0.00,,,0.22,LWC2 V0.39 B123,2013-08-16 08:20:00,
2013-08-16 02:25:00,66.9,65.4,29.99,NNE,25,1.0,2.0,95,0.00,,,0.22,LWC2 V0.39 B123,2013-08-16 08:25:00,
2013-08-16 02:30:00,66.9,65.4,29.99,NNE,33,1.0,1.0,95,0.00,,,0.21,LWC2 V0.39 B123,2013-08-16 08:30:00,
2013-08-16 02:35:00,66.9,65.4,29.99,NNE,33,0.0,0.0,95,0.00,,,0.20,LWC2 V0.39 B123,2013-08-16 08:35:00,
2013-08-16 02:40:00,66.9,65.4,29.99,NNE,22,0.0,2.0,95,0.00,,,0.22,LWC2 V0.39 B123,2013-08-16 08:40:00,
2013-08-16 02:45:00,66.9,65.4,29.99,NNE,22,0.0,0.0,95,0.00,,,0.22,LWC2 V0.39 B123,2013-08-16 08:45:00,
2013-08-16 02:50:00,66.9,65.4,29.99,NNE,25,0.0,0.0,95,0.00,,,0.22,LWC2 V0.39 B123,2013-08-16 08:50:00,
2013-08-16 02:55:00,66.9,65.4,29.99,NNE,25,0.0,0.0,95,0.00,,,0.20,LWC2 V0.39 B123,2013-08-16 08:55:00,
2013-08-16 03:00:00,66.8,65.3,29.99,NNE,23,0.0,0.0,95,0.00,,,0.20,LWC2 V0.39 B123,2013-08-16 09:00:00,
2013-08-16 03:05:00,66.6,65.1,29.99,NNE,23,0.0,0.0,95,0.00,,,0.22,LWC2 V0.39 B123,2013-08-16 09:05:00,
2013-08-16 03:10:00,66.6,65.1,29.99,NNE,25,0.0,0.0,95,0.00,,,0.20,LWC2 V0.39 B123,2013-08-16 09:10:00,
2013-08-16 03:15:00,66.6,65.1,29.98,NNE,25,0.0,0.0,95,0.00,,,0.21,LWC2 V0.39 B123,2013-08-16 09:15:00,
2013-08-16 03:20:00,66.6,65.4,29.98,NE,40,0.0,0.0,96,0.00,,,0.20,LWC2 V0.39 B123,2013-08-16 09:20:00,
2013-08-16 03:25:00,66.7,65.5,29.98,North,1,0.0,0.0,96,0.00,,,0.20,LWC2 V0.39 B123,2013-08-16 09:25:00,
2013-08-16 03:30:00,66.7,65.5,29.98,NE,42,1.0,1.0,96,0.00,,,0.21,LWC2 V0.39 B123,2013-08-16 09:30:00,
2013-08-16 03:35:00,66.7,65.5,29.97,NNE,13,0.0,0.0,96,0.00,,,0.22,LWC2 V0.39 B123,2013-08-16 09:35:00,
2013-08-16 03:40:00,66.7,65.2,29.97,NNE,13,0.0,0.0,95,0.00,,,0.21,LWC2 V0.39 B123,2013-08-16 09:40:00,
2013-08-16 03:45:00,66.7,65.2,29.97,NNE,13,0.0,0.0,95,0.00,,,0.22,LWC2 V0.39 B123,2013-08-16 09:45:00,
2013-08-16 03:50:00,66.6,65.1,29.98,NNE,13,0.0,0.0,95,0.00,,,0.20,LWC2 V0.39 B123,2013-08-16 09:50:00,
2013-08-16 03:55:00,66.4,64.9,29.98,NNE,13,0.0,0.0,95,0.00,,,0.22,LWC2 V0.39 B123,2013-08-16 09:55:00,
2013-08-16 04:00:00,66.4,65.2,29.98,NNE,13,0.0,0.0,96,0.00,,,0.21,LWC2 V0.39 B123,2013-08-16 10:00:00,
2013-08-16 04:05:00,66.4,65.2,29.98,NNE,13,0.0,0.0,96,0.00,,,0.21,LWC2 V0.39 B123,2013-08-16 10:05:00,
2013-08-16 04:10:00,66.4,65.2,29.98,NNE,13,0.0,0.0,96,0.00,,,0.22,LWC2 V0.39 B123,2013-08-16 10:10:00,
2013-08-16 04:15:00,66.3,65.1,29.98,NNE,13,0.0,0.0,96,0.00,,,0.22,LWC2 V0.39 B123,2013-08-16 10:15:00,
2013-08-16 04:20:00,66.2,65.0,29.98,NNE,13,0.0,0.0,96,0.00,,,0.20,LWC2 V0.39 B123,2013-08-16 10:20:00,
2013-08-16 04:25:00,66.0,64.5,29.98,NNE,13,0.0,0.0,95,0.00,,,0.21,LWC2 V0.39 B123,2013-08-16 10:25:00,
2013-08-16 04:30:00,65.8,64.3,29.98,NNE,13,0.0,0.0,95,0.00,,,0.21,LWC2 V0.39 B123,2013-08-16 10:30:00,
2013-08-16 04:35:00,65.7,64.5,29.97,NNE,13,0.0,0.0,96,0.00,,,0.22,LWC2 V0.39 B123,2013-08-16 10:35:00,
2013-08-16 04:40:00,65.6,64.4,29.98,NNE,12,0.0,0.0,96,0.00,,,0.20,LWC2 V0.39 B123,2013-08-16 10:40:00,
2013-08-16 04:45:00,65.6,64.4,29.97,NNE,13,0.0,0.0,96,0.00,,,0.20,LWC2 V0.39 B123,2013-08-16 10:45:00,
2013-08-16 04:50:00,65.6,64.4,29.98,NNE,13,0.0,0.0,96,0.00,,,0.20,LWC2 V0.39 B123,2013-08-16 10:50:00,
2013-08-16 04:55:00,65.7,64.5,29.98,NNE,13,0.0,0.0,96,0.00,,,0.22,LWC2 V0.39 B123,2013-08-16 10:55:00,
2013-08-16 05:00:00,65.9,64.7,29.98,NNE,13,0.0,0.0,96,0.00,,,0.21,LWC2 V0.39 B123,2013-08-16 11:00:00,
2013-08-16 05:05:00,66.1,64.9,29.98,NNE,13,0.0,0.0,96,0.00,,,0.20,LWC2 V0.39 B123,2013-08-16 11:05:00,
2013-08-16 05:10:00,66.1,64.9,29.98,NNE,13,0.0,0.0,96,0.00,,,0.22,LWC2 V0.39 B123,2013-08-16 11:10:00,
2013-08-16 05:15:00,66.3,65.1,29.98,NNE,13,0.0,0.0,96,0.00,,,0.21,LWC2 V0.39 B123,2013-08-16 11:15:00,
2013-08-16 05:20:00,66.3,65.1,29.99,NNE,12,0.0,0.0,96,0.00,,,0.20,LWC2 V0.39 B123,2013-08-16 11:20:00,
2013-08-16 05:25:00,66.2,65.0,29.99,NNE,13,0.0,0.0,96,0.00,,,0.21,LWC2 V0.39 B123,2013-08-16 11:25:00,
2013-08-16 05:30:00,66.0,64.8,30.00,NNE,13,0.0,0.0,96,0.00,,,0.21,LWC2 V0.39 B123,2013-08-16 11:30:00,
2013-08-16 05:35:00,65.7,64.5,30.00,NNE,13,0.0,0.0,96,0.00,,,0.21,LWC2 V0.39 B123,2013-08-16 11:35:00,
2013-08-16 05:40:00,65.5,64.3,30.00,NNE,13,0.0,0.0,96,0.00,,,0.22,LWC2 V0.39 B123,2013-08-16 11:40:00,
2013-08-16 05:45:00,65.5,64.3,30.01,NNE,13,0.0,0.0,96,0.00,,,0.20,LWC2 V0.39 B123,2013-08-16 11:45:00,
2013-08-16 05:50:00,65.6,64.4,30.01,NNE,13,0.0,0.0,96,0.00,,,0.20,LWC2 V0.39 B123,2013-08-16 11:50:00,
2013-08-16 05:55:00,65.8,64.9,30.01,NNE,13,0.0,0.0,97,0.00,,,0.21,LWC2 V0.39 B123,2013-08-16 11:55:00,
2013-08-16 06:00:00,66.0,65.1,30.02,NE,36,0.0,0.0,97,0.00,,,0.20,LWC2 V0.39 B123,2013-08-16 12:00:00,
2013-08-16 06:05:00,66.1,65.2,30.01,NNE,18,0.0,0.0,97,0.00,,,0.22,LWC2 V0.39 B123,2013-08-16 12:05:00,
2013-08-16 06:10:00,66.3,65.4,30.01,ENE,75,0.0,0.0,97,0.00,,,0.22,LWC2 V0.39 B123,2013-08-16 12:10:00,
2013-08-16 06:15:00,66.1,64.9,30.02,North,9,0.0,2.0,96,0.00,,,0.21,LWC2 V0.39 B123,2013-08-16 12:15:00,
2013-08-16 06:20:00,66.1,64.9,30.02,NNE,22,0.0,0.0,96,0.00,,,0.21,LWC2 V0.39 B123,2013-08-16 12:20:00,
2013-08-16 06:25:00,66.2,65.0,30.02,NE,45,0.0,1.0,96,0.00,,,0.21,LWC2 V0.39 B123,2013-08-16 12:25:00,
2013-08-16 06:30:00,66.2,65.0,30.02,East,79,0.0,0.0,96,0.00,,,0.21,LWC2 V0.39 B123,2013-08-16 12:30:00,
2013-08-16 06:35:00,66.5,65.3,30.02,East,79,0.0,0.0,96,0.00,,,0.21,LWC2 V0.39 B123,2013-08-16 12:35:00,
2013-08-16 06:40:00,66.9,66.0,30.02,ESE,105,0.0,0.0,97,0.00,,,0.20,LWC2 V0.39 B123,2013-08-16 12:40:00,
2013-08-16 06:45:00,67.3,66.1,30.02,ESE,115,0.0,0.0,96,0.00,,,0.20,LWC2 V0.39 B123,2013-08-16 12:45:00,
2013-08-16 06:50:00,67.5,66.3,30.02,ESE,114,0.0,0.0,96,0.00,,,0.21,LWC2 V0.39 B123,2013-08-16 12:50:00,
2013-08-16 06:55:00,67.9,66.7,30.02,ENE,69,0.0,1.0,96,0.00,,,0.20,LWC2 V0.39 B123,2013-08-16 12:55:00,
2013-08-16 07:00:00,68.4,67.2,30.02,ESE,116,0.0,2.0,96,0.00,,,0.20,LWC2 V0.39 B123,2013-08-16 13:00:00,
2013-08-16 07:05:00,68.4,66.9,30.02,SE,125,3.0,3.0,95,0.00,,,0.20,LWC2 V0.39 B123,2013-08-16 13:05:00,
2013-08-16 07:10:00,68.1,66.3,30.02,ESE,114,0.0,0.0,94,0.00,,,0.20,LWC2 V0.39 B123,2013-08-16 13:10:00,
2013-08-16 07:15:00,67.8,66.0,30.02,ESE,114,1.0,1.0,94,0.00,,,0.21,LWC2 V0.39 B123,2013-08-16 13:15:00,
2013-08-16 07:20:00,67.8,66.0,30.02,ESE,106,0.0,2.0,94,0.00,,,0.21,LWC2 V0.39 B123,2013-08-16 13:20:00,
2013-08-16 07:25:00,68.1,66.3,30.02,SE,126,0.0,0.0,94,0.00,,,0.21,LWC2 V0.39 B123,2013-08-16 13:25:00,
2013-08-16 07:30:00,68.3,66.2,30.03,ESE,106,0.0,0.0,93,0.00,,,0.21,LWC2 V0.39 B123,2013-08-16 13:30:00,
2013-08-16 07:35:00,68.6,66.5,30.03,East,97,0.0,1.0,93,0.00,,,0.20,LWC2 V0.39 B123,2013-08-16 13:35:00,
2013-08-16 07:40:00,69.2,67.1,30.03,ENE,72,0.0,0.0,93,0.00,,,0.21,LWC2 V0.39 B123,2013-08-16 13:40:00,
2013-08-16 07:45:00,69.2,66.8,30.04,ESE,112,0.0,0.0,92,0.00,,,0.22,LWC2 V0.39 B123,2013-08-16 13:45:00,
2013-08-16 07:50:00,69.0,66.3,30.04,SSE,156,2.0,2.0,91,0.00,,,0.20,LWC2 V0.39 B123,2013-08-16 13:50:00,
2013-08-16 07:55:00,68.7,66.3,30.04,ESE,121,2.0,2.0,92,0.00,,,0.21,LWC2 V0.39 B123,2013-08-16 13:55:00,
2013-08-16 08:00:00,68.5,66.1,30.04,ESE,115,0.0,1.0,92,0.00,,,0.21,LWC2 V0.39 B123,2013-08-16 14:00:00,
2013-08-16 08:05:00,68.6,66.5,30.04,SE,143,1.0,2.0,93,0.00,,,0.22,LWC2 V0.39 B123,2013-08-16 14:05:00,
2013-08-16 08:10:00,68.5,66.1,30.04,ESE,116,1.0,3.0,92,0.00,,,0.21,LWC2 V0.39 B123,2013-08-16 14:10:00,
2013-08-16 08:15:00,68.6,66.2,30.04,SSE,165,2.0,3.0,92,0.00,,,0.21,LWC2 V0.39 B123,2013-08-16 14:15:00,
2013-08-16 08:20:00,68.9,66.5,30.04,ESE,115,1.0,3.0,92,0.00,,,0.20,LWC2 V0.39 B123,2013-08-16 14:20:00,
2013-08-16 08:25:00,69.7,66.9,30.04,SSE,167,2.0,4.0,91,0.00,,,0.20,LWC2 V0.39 B123,2013-08-16 14:25:00,
2013-08-16 08:30:00,69.6,66.5,30.04,East,90,1.0,3.0,90,0.00,,,0.22,LWC2 V0.39 B123,2013-08-16 14:30:00,
2013-08-16 08:35:00,69.5,66.1,30.04,South,188,2.0,3.0,89,0.00,,,0.20,LWC2 V0.39 B123,2013-08-16 14:35:00,
2013-08-16 08:40:00,69.6,66.2,30.04,SE,132,1.0,1.0,89,0.00,,,0.22,LWC2 V0.39 B123,2013-08-16 14:40:00,
2013-08-16 08:45:00,70.2,66.8,30.04,SE,130,1.0,1.0,89,0.00,,,0.20,LWC2 V0.39 B123,2013-08-16 14:45:00,
2013-08-16 08:50:00,70.3,66.2,30.05,East,93,1.0,4.0,87,0.00,,,0.21,LWC2 V0.39 B123,2013-08-16 14:50:00,
2013-08-16 08:55:00,70.6,66.5,30.05,ESE,114,0.0,2.0,87,0.00,,,0.22,LWC2 V0.39 B123,2013-08-16 14:55:00,
2013-08-16 09:00:00,70.4,66.3,30.05,SW,236,1.0,2.0,87,0.00,,,0.20,LWC2 V0.39 B123,2013-08-16 15:00:00,
2013-08-16 09:05:00,70.4,66.7,30.05,SE,145,1.0,4.0,88,0.00,,,0.21,LWC2 V0.39 B123,2013-08-16 15:05:00,
2013-08-16 09:10:00,70.6,67.2,30.05,SSE,165,0.0,3.0,89,0.00,,,0.20,LWC2 V0.39 B123,2013-08-16 15:10:00,
2013-08-16 09:15:00,70.7,66.3,30.05,SSW,203,1.0,4.0,86,0.00,,,0.22,LWC2 V0.39 B123,2013-08-16 15:15:00,
2013-08-16 09:20:00,71.0,66.6,30.04,SE,133,0.0,3.0,86,0.00,,,0.20,LWC2 V0.39 B123,2013-08-16 15:20:00,
2013-08-16 09:25:00,71.6,67.5,30.05,South,173,1.0,3.0,87,0.00,,,0.20,LWC2 V0.39 B123,2013-08-16 15:25:00,
2013-08-16 09:30:00,72.1,67.0,30.05,South,170,1.0,1.0,84,0.00,,,0.20,LWC2 V0.39 B123,2013-08-16 15:30:00,
2013-08-16 09:35:00,72.4,67.3,30.05,SSE,158,1.0,4.0,84,0.00,,,0.21,LWC2 V0.39 B123,2013-08-16 15:35:00,
2013-08-16 09:40:00,72.7,66.9,30.05,SSE,160,0.0,3.0,82,0.00,,,0.21,LWC2 V0.39 B123,2013-08-16 15:40:00,
2013-08-16 09:45:00,72.6,67.1,30.05,ESE,108,0.0,1.0,83,0.00,,,0.20,LWC2 V0.39 B123,2013-08-16 15:45:00,
2013-08-16 09:50:00,73.0,66.8,30.05,East,80,3.0,3.0,81,0.00,,,0.21,LWC2 V0.39 B123,2013-08-16 15:50:00,
2013-08-16 09:55:00,72.9,66.0,30.06,SE,124,0.0,2.0,79,0.00,,,0.21,LWC2 V0.39 B123,2013-08-16 15:55:00,
2013-08-16 10:00:00,73.0,66.1,30.06,NE,47,0.0,0.0,79,0.00,,,0.21,LWC2 V0.39 B123,2013-08-16 16:00:00,
2013-08-16 10:05:00,72.9,66.0,30.06,East,79,0.0,1.0,79,0.00,,,0.21,LWC2 V0.39 B123,2013-08-16 16:05:00,
2013-08-16 10:10:00,73.3,66.7,30.06,ESE,113,1.0,2.0,80,0.00,,,0.20,LWC2 V0.39 B123,2013-08-16 16:10:00,
2013-08-16 10:15:00,73.5,66.9,30.06,SSE,166,1.0,3.0,80,0.00,,,0.21,LWC2 V0.39 B123,2013-08-16 16:15:00,
2013-08-16 10:20:00,73.6,67.4,30.06,SSE,153,1.0,2.0,81,0.00,,,0.20,LWC2 V0.39 B123,2013-08-16 16:20:00,
2013-08-16 10:25:00,73.8,66.5,30.06,South,177,0.0,1.0,78,0.00,,,0.20,LWC2 V0.39 B123,2013-08-16 16:25:00,
2013-08-16 10:30:00,74.2,68.3,30.06,NNE,31,0.0,2.0,82,0.00,,,0.20,LWC2 V0.39 B123,2013-08-16 16:30:00,
2013-08-16 10:35:00,74.1,67.9,30.06,NNE,31,1.0,2.0,81,0.00,,,0.21,LWC2 V0.39 B123,2013-08-16 16:35:00,
2013-08-16 10:40:00,74.1,67.5,30.06,NNE,29,0.0,1.0,80,0.00,,,0.22,LWC2 V0.39 B123,2013-08-16 16:40:00,
2013-08-16 10:45:00,75.0,68.0,30.06,NE,56,2.0,2.0,79,0.00,,,0.20,LWC2 V0.39 B123,2013-08-16 16:45:00,
2013-08-16 10:50:00,75.0,68.0,30.05,NNE,15,2.0,2.0,79,0.00,,,0.21,LWC2 V0.39 B123,2013-08-16 16:50:00,
2013-08-16 10:55:00,74.8,67.5,30.06,ENE,67,0.0,1.0,78,0.00,,,0.22,LWC2 V0.39 B123,2013-08-16 16:55:00,
2013-08-16 11:00:00,75.4,68.4,30.05,WNW,300,1.0,1.0,79,0.00,,,0.20,LWC2 V0.39 B123,2013-08-16 17:00:00,
2013-08-16 11:05:00,75.6,68.2,30.05,NW,321,0.0,3.0,78,0.00,,,0.20,LWC2 V0.39 B123,2013-08-16 17:05:00,
2013-08-16 11:10:00,75.5,68.1,30.06,ENE,68,2.0,3.0,78,0.00,,,0.20,LWC2 V0.39 B123,2013-08-16 17:10:00,
2013-08-16 11:15:00,74.9,67.6,30.06,NNE,32,0.0,1.0,78,0.00,,,0.20,LWC2 V0.39 B123,2013-08-16 17:15:00,
2013-08-16 11:20:00,75.3,67.6,30.06,NNE,33,0.0,1.0,77,0.00,,,0.20,LWC2 V0.39 B123,2013-08-16 17:20:00,
2013-08-16 11:25:00,75.5,67.4,30.05,NW,311,0.0,2.0,76,0.00,,,0.20,LWC2 V0.39 B123,2013-08-16 17:25:00,
2013-08-16 11:30:00,76.1,68.3,30.05,SSW,205,1.0,2.0,77,0.00,,,0.20,LWC2 V0.39 B123,2013-08-16 17:30:00,
2013-08-16 11:35:00,76.1,67.2,30.05,NE,41,0.0,1.0,74,0.00,,,0.20,LWC2 V0.39 B123,2013-08-16 17:35:00,
2013-08-16 11:40:00,76.2,67.7,30.05,ENE,75,0.0,1.0,75,0.00,,,0.21,LWC2 V0.39 B123,2013-08-16 17:40:00,
2013-08-16 11:45:00,77.0,68.4,30.05,SSE,159,2.0,2.0,75,0.00,,,0.20,LWC2 V0.39 B123,2013-08-16 17:45:00,
2013-08-16 11:51:00,76.9,68.4,30.05,East,80,1.0,1.0,75,0.00,,,0.20,LWC2 V0.39 B123,2013-08-16 17:51:00,
2013-08-16 11:56:00,77.8,68.8,30.05,ESE,115,1.0,1.0,74,0.00,,,0.20,LWC2 V0.39 B123,2013-08-16 17:56:00,
2013-08-16 12:01:00,78.0,69.8,30.05,East,93,1.0,1.0,76,0.00,,,0.20,LWC2 V0.39 B123,2013-08-16 18:01:00,
2013-08-16 12:06:00,77.8,68.4,30.04,ESE,116,2.0,2.0,73,0.00,,,0.20,LWC2 V0.39 B123,2013-08-16 18:06:00,
2013-08-16 12:11:00,77.9,68.9,30.04,East,86,0.0,2.0,74,0.00,,,0.20,LWC2 V0.39 B123,2013-08-16 18:11:00,
2013-08-16 12:16:00,78.4,69.4,30.04,ESE,103,3.0,3.0,74,0.00,,,0.20,LWC2 V0.39 B123,2013-08-16 18:16:00,
2013-08-16 12:21:00,78.5,69.1,30.04,South,170,1.0,2.0,73,0.00,,,0.20,LWC2 V0.39 B123,2013-08-16 18:21:00,
2013-08-16 12:26:00,78.4,67.8,30.04,SSE,148,0.0,1.0,70,0.00,,,0.20,LWC2 V0.39 B123,2013-08-16 18:26:00,
2013-08-16 12:31:00,78.8,68.6,30.03,SE,126,2.0,4.0,71,0.00,,,0.20,LWC2 V0.39 B123,2013-08-16 18:31:00,
2013-08-16 12:36:00,78.3,68.9,30.03,ESE,103,0.0,0.0,73,0.00,,,0.20,LWC2 V0.39 B123,2013-08-16 18:36:00,
2013-08-16 12:41:00,77.8,68.0,30.03,SE,126,1.0,2.0,72,0.00,,,0.20,LWC2 V0.39 B123,2013-08-16 18:41:00,
2013-08-16 12:46:00,77.6,67.4,30.03,NE,51,0.0,2.0,71,0.00,,,0.20,LWC2 V0.39 B123,2013-08-16 18:46:00,
2013-08-16 12:51:00,78.5,69.1,30.03,NE,51,1.0,2.0,73,0.00,,,0.20,LWC2 V0.39 B123,2013-08-16 18:51:00,
2013-08-16 12:56:00,78.2,67.6,30.03,ESE,115,2.0,3.0,70,0.00,,,0.20,LWC2 V0.39 B123,2013-08-16 18:56:00,
2013-08-16 13:01:00,77.7,68.7,30.03,ESE,114,0.0,2.0,74,0.00,,,0.20,LWC2 V0.39 B123,2013-08-16 19:01:00,
2013-08-16 13:06:00,78.3,68.1,30.03,WSW,245,2.0,2.0,71,0.00,,,0.20,LWC2 V0.39 B123,2013-08-16 19:06:00,
2013-08-16 13:11:00,78.8,68.2,30.03,SW,235,0.0,0.0,70,0.00,,,0.20,LWC2 V0.39 B123,2013-08-16 19:11:00,
2013-08-16 13:16:00,78.7,68.1,30.03,East,101,0.0,0.0,70,0.00,,,0.20,LWC2 V0.39 B123,2013-08-16 19:16:00,
2013-08-16 13:21:00,78.1,68.3,30.02,ESE,103,2.0,3.0,72,0.00,,,0.20,LWC2 V0.39 B123,2013-08-16 19:21:00,
2013-08-16 13:26:00,77.5,67.7,30.03,ESE,114,3.0,4.0,72,0.00,,,0.20,LWC2 V0.39 B123,2013-08-16 19:26:00,
2013-08-16 13:31:00,77.3,67.6,30.02,ESE,113,2.0,2.0,72,0.00,,,0.20,LWC2 V0.39 B123,2013-08-16 19:31:00,
2013-08-16 13:37:00,77.7,69.5,30.02,ESE,105,0.0,3.0,76,0.00,,,0.20,LWC2 V0.39 B123,2013-08-16 19:37:00,
2013-08-16 13:42:00,78.7,68.5,30.02,SE,146,2.0,2.0,71,0.00,,,0.20,LWC2 V0.39 B123,2013-08-16 19:42:00,
2013-08-16 13:47:00,78.9,67.4,30.02,ESE,108,1.0,3.0,68,0.00,,,0.21,LWC2 V0.39 B123,2013-08-16 19:47:00,
2013-08-16 13:52:00,78.4,67.4,30.02,ESE,111,1.0,2.0,69,0.00,,,0.21,LWC2 V0.39 B123,2013-08-16 19:52:00,
2013-08-16 13:57:00,77.7,66.7,30.02,ESE,113,1.0,3.0,69,0.00,,,0.20,LWC2 V0.39 B123,2013-08-16 19:57:00,
2013-08-16 14:02:00,78.1,67.9,30.02,South,173,2.0,3.0,71,0.00,,,0.20,LWC2 V0.39 B123,2013-08-16 20:02:00,
2013-08-16 14:07:00,79.2,68.1,30.02,SSE,160,4.0,6.0,69,0.00,,,0.20,LWC2 V0.39 B123,2013-08-16 20:07:00,
2013-08-16 14:12:00,79.9,67.9,30.02,SSE,165,3.0,4.0,67,0.00,,,0.20,LWC2 V0.39 B123,2013-08-16 20:12:00,
2013-08-16 14:17:00,80.3,68.3,30.01,NNW,337,2.0,4.0,67,0.00,,,0.20,LWC2 V0.39 B123,2013-08-16 20:17:00,
2013-08-16 14:22:00,81.1,68.2,30.01,NE,56,1.0,2.0,65,0.00,,,0.20,LWC2 V0.39 B123,2013-08-16 20:22:00,
2013-08-16 14:27:00,80.5,68.1,30.01,ENE,61,2.0,2.0,66,0.00,,,0.20,LWC2 V0.39 B123,2013-08-16 20:27:00,
2013-08-16 14:32:00,79.4,67.9,30.01,East,89,1.0,2.0,68,0.00,,,0.20,LWC2 V0.39 B123,2013-08-16 20:32:00,
2013-08-16 14:37:00,79.0,69.2,30.01,ESE,118,3.0,4.0,72,0.00,,,0.20,LWC2 V0.39 B123,2013-08-16 20:37:00,
2013-08-16 14:42:00,79.3,69.5,30.01,ENE,78,0.0,2.0,72,0.00,,,0.20,LWC2 V0.39 B123,2013-08-16 20:42:00,
2013-08-16 14:47:00,80.1,67.7,30.01,SSE,147,2.0,2.0,66,0.00,,,0.20,LWC2 V0.39 B123,2013-08-16 20:47:00,
2013-08-16 14:52:00,80.5,67.6,30.01,NE,43,0.0,2.0,65,0.00,,,0.20,LWC2 V0.39 B123,2013-08-16 20:52:00,
2013-08-16 14:57:00,81.1,69.1,30.01,NE,47,0.0,2.0,67,0.00,,,0.20,LWC2 V0.39 B123,2013-08-16 20:57:00,
2013-08-16 15:02:00,81.6,68.2,30.01,ESE,110,1.0,3.0,64,0.00,,,0.20,LWC2 V0.39 B123,2013-08-16 21:02:00,
2013-08-16 15:07:00,81.5,67.2,30.01,ESE,111,2.0,3.0,62,0.00,,,0.20,LWC2 V0.39 B123,2013-08-16 21:07:00,
2013-08-16 15:12:00,81.4,68.9,30.01,ESE,117,3.0,3.0,66,0.00,,,0.20,LWC2 V0.39 B123,2013-08-16 21:12:00,
2013-08-16 15:17:00,81.8,69.3,30.01,NE,51,0.0,0.0,66,0.00,,,0.20,LWC2 V0.39 B123,2013-08-16 21:17:00,
2013-08-16 15:22:00,82.1,68.2,30.01,SE,135,1.0,3.0,63,0.00,,,0.20,LWC2 V0.39 B123,2013-08-16 21:22:00,
2013-08-16 15:27:00,81.7,66.9,30.00,ESE,113,2.0,3.0,61,0.00,,,0.20,LWC2 V0.39 B123,2013-08-16 21:27:00,
2013-08-16 15:32:00,81.4,68.9,30.00,ESE,115,2.0,3.0,66,0.00,,,0.21,LWC2 V0.39 B123,2013-08-16 21:32:00,
2013-08-16 15:37:00,81.5,69.0,30.00,NE,54,0.0,4.0,66,0.00,,,0.20,LWC2 V0.39 B123,2013-08-16 21:37:00,
2013-08-16 15:42:00,81.6,68.7,30.00,ESE,102,1.0,4.0,65,0.00,,,0.20,LWC2 V0.39 B123,2013-08-16 21:42:00,
2013-08-16 15:47:00,81.6,70.0,30.00,East,91,1.0,3.0,68,0.00,,,0.20,LWC2 V0.39 B123,2013-08-16 21:47:00,
2013-08-16 15:52:00,81.9,69.4,30.01,ENE,69,0.0,1.0,66,0.00,,,0.20,LWC2 V0.39 B123,2013-08-16 21:52:00,
2013-08-16 15:57:00,81.9,68.5,30.00,East,100,0.0,1.0,64,0.00,,,0.21,LWC2 V0.39 B123,2013-08-16 21:57:00,
2013-08-16 16:02:00,82.3,70.2,30.01,East,89,0.0,1.0,67,0.00,,,0.20,LWC2 V0.39 B123,2013-08-16 22:02:00,
2013-08-16 16:07:00,82.5,68.6,30.01,ESE,113,2.0,3.0,63,0.00,,,0.21,LWC2 V0.39 B123,2013-08-16 22:07:00,
2013-08-16 16:12:00,81.7,68.8,30.01,SE,131,2.0,5.0,65,0.00,,,0.20,LWC2 V0.39 B123,2013-08-16 22:12:00,
2013-08-16 16:17:00,80.7,69.6,30.01,ESE,121,2.0,2.0,69,0.00,,,0.20,LWC2 V0.39 B123,2013-08-16 22:17:00,
2013-08-16 16:22:00,80.7,69.6,30.01,East,91,0.0,2.0,69,0.00,,,0.21,LWC2 V0.39 B123,2013-08-16 22:22:00,
2013-08-16 16:27:00,81.4,69.8,30.01,East,98,0.0,1.0,68,0.00,,,0.20,LWC2 V0.39 B123,2013-08-16 22:27:00,
2013-08-16 16:32:00,81.4,68.5,30.01,SE,126,2.0,4.0,65,0.00,,,0.20,LWC2 V0.39 B123,2013-08-16 22:32:00,
2013-08-16 16:37:00,81.6,68.2,30.01,East,100,3.0,4.0,64,0.00,,,0.20,LWC2 V0.39 B123,2013-08-16 22:37:00,
2013-08-16 16:42:00,80.8,69.2,30.01,East,86,1.0,1.0,68,0.00,,,0.20,LWC2 V0.39 B123,2013-08-16 22:42:00,
2013-08-16 16:47:00,79.9,67.9,30.01,ESE,110,0.0,1.0,67,0.00,,,0.20,LWC2 V0.39 B123,2013-08-16 22:47:00,
2013-08-16 16:52:00,79.7,68.6,30.01,East,82,0.0,2.0,69,0.00,,,0.20,LWC2 V0.39 B123,2013-08-16 22:52:00,
2013-08-16 16:57:00,79.6,68.5,30.01,ESE,103,0.0,0.0,69,0.00,,,0.20,LWC2 V0.39 B123,2013-08-16 22:57:00,
2013-08-16 17:02:00,79.9,68.4,30.01,East,101,1.0,3.0,68,0.00,,,0.20,LWC2 V0.39 B123,2013-08-16 23:02:00,
2013-08-16 17:07:00,80.4,68.4,30.01,ENE,77,0.0,1.0,67,0.00,,,0.21,LWC2 V0.39 B123,2013-08-16 23:07:00,
2013-08-16 17:12:00,80.6,68.6,30.01,East,82,0.0,0.0,67,0.00,,,0.21,LWC2 V0.39 B123,2013-08-16 23:12:00,
2013-08-16 17:17:00,80.3,67.0,30.01,ESE,120,3.0,3.0,64,0.00,,,0.21,LWC2 V0.39 B123,2013-08-16 23:17:00,
2013-08-16 17:22:00,80.3,67.9,30.01,East,96,0.0,0.0,66,0.00,,,0.20,LWC2 V0.39 B123,2013-08-16 23:22:00,
2013-08-16 17:27:00,80.2,68.2,30.01,East,83,0.0,0.0,67,0.00,,,0.20,LWC2 V0.39 B123,2013-08-16 23:27:00,
2013-08-16 17:32:00,80.0,68.0,30.01,ENE,63,0.0,0.0,67,0.00,,,0.20,LWC2 V0.39 B123,2013-08-16 23:32:00,
2013-08-16 17:37:00,79.6,68.1,30.02,ENE,69,0.0,1.0,68,0.00,,,0.20,LWC2 V0.39 B123,2013-08-16 23:37:00,
2013-08-16 17:42:00,79.1,67.6,30.01,ENE,69,0.0,0.0,68,0.00,,,0.20,LWC2 V0.39 B123,2013-08-16 23:42:00,
2013-08-16 17:47:00,78.5,67.5,30.01,NE,56,0.0,0.0,69,0.00,,,0.20,LWC2 V0.39 B123,2013-08-16 23:47:00,
2013-08-16 17:52:00,78.0,67.4,30.01,NE,56,0.0,0.0,70,0.00,,,0.20,LWC2 V0.39 B123,2013-08-16 23:52:00,
2013-08-16 17:57:00,77.8,67.6,30.01,East,91,1.0,1.0,71,0.00,,,0.21,LWC2 V0.39 B123,2013-08-16 23:57:00,
2013-08-16 18:02:00,77.6,68.2,30.01,ENE,61,0.0,1.0,73,0.00,,,0.21,LWC2 V0.39 B123,2013-08-17 00:02:00,
2013-08-16 18:07:00,77.4,67.6,30.01,East,98,1.0,2.0,72,0.00,,,0.21,LWC2 V0.39 B123,2013-08-17 00:07:00,
2013-08-16 18:12:00,77.1,67.4,30.01,East,91,0.0,2.0,72,0.00,,,0.21,LWC2 V0.39 B123,2013-08-17 00:12:00,
2013-08-16 18:17:00,76.9,68.0,30.02,ENE,78,0.0,2.0,74,0.00,,,0.20,LWC2 V0.39 B123,2013-08-17 00:17:00,
2013-08-16 18:22:00,76.7,67.4,30.02,ENE,69,0.0,3.0,73,0.00,,,0.21,LWC2 V0.39 B123,2013-08-17 00:22:00,
2013-08-16 18:27:00,76.5,67.6,30.02,NNE,30,0.0,1.0,74,0.00,,,0.21,LWC2 V0.39 B123,2013-08-17 00:27:00,
2013-08-16 18:32:00,76.3,67.8,30.02,East,87,0.0,2.0,75,0.00,,,0.21,LWC2 V0.39 B123,2013-08-17 00:32:00,
2013-08-16 18:37:00,76.1,67.6,30.02,East,87,1.0,1.0,75,0.00,,,0.20,LWC2 V0.39 B123,2013-08-17 00:37:00,
2013-08-16 18:42:00,75.9,67.8,30.02,East,88,0.0,0.0,76,0.00,,,0.21,LWC2 V0.39 B123,2013-08-17 00:42:00,
2013-08-16 18:47:00,75.7,67.6,30.02,NE,51,0.0,1.0,76,0.00,,,0.21,LWC2 V0.39 B123,2013-08-17 00:47:00,
2013-08-16 18:52:00,75.4,67.7,30.02,ENE,74,0.0,1.0,77,0.00,,,0.21,LWC2 V0.39 B123,2013-08-17 00:52:00,
2013-08-16 18:57:00,75.2,67.1,30.02,ENE,72,0.0,1.0,76,0.00,,,0.20,LWC2 V0.39 B123,2013-08-17 00:57:00,
2013-08-16 19:02:00,75.0,67.3,30.02,East,97,0.0,3.0,77,0.00,,,0.21,LWC2 V0.39 B123,2013-08-17 01:02:00,
2013-08-16 19:07:00,74.8,67.1,30.02,East,87,1.0,1.0,77,0.00,,,0.21,LWC2 V0.39 B123,2013-08-17 01:07:00,
2013-08-16 19:12:00,74.6,66.9,30.02,East,86,0.0,1.0,77,0.00,,,0.21,LWC2 V0.39 B123,2013-08-17 01:12:00,
2013-08-16 19:17:00,74.5,67.2,30.03,NE,56,1.0,1.0,78,0.00,,,0.21,LWC2 V0.39 B123,2013-08-17 01:17:00,
2013-08-16 19:22:00,74.4,66.7,30.03,East,84,0.0,1.0,77,0.00,,,0.21,LWC2 V0.39 B123,2013-08-17 01:22:00,
2013-08-16 19:27:00,74.3,66.6,30.03,ENE,62,0.0,0.0,77,0.00,,,0.20,LWC2 V0.39 B123,2013-08-17 01:27:00,
2013-08-16 19:32:00,74.2,66.9,30.03,ESE,107,1.0,1.0,78,0.00,,,0.20,LWC2 V0.39 B123,2013-08-17 01:32:00,
2013-08-16 19:37:00,74.0,66.7,30.03,East,96,0.0,0.0,78,0.00,,,0.21,LWC2 V0.39 B123,2013-08-17 01:37:00,
2013-08-16 19:42:00,73.9,66.2,30.03,ENE,70,0.0,1.0,77,0.00,,,0.21,LWC2 V0.39 B123,2013-08-17 01:42:00,
2013-08-16 19:47:00,73.8,66.1,30.03,East,90,0.0,1.0,77,0.00,,,0.21,LWC2 V0.39 B123,2013-08-17 01:47:00,
2013-08-16 19:52:00,73.7,66.4,30.03,ENE,74,1.0,4.0,78,0.00,,,0.21,LWC2 V0.39 B123,2013-08-17 01:52:00,
2013-08-16 19:57:00,73.7,66.4,30.04,East,89,1.0,1.0,78,0.00,,,0.21,LWC2 V0.39 B123,2013-08-17 01:57:00,
2013-08-16 20:02:00,73.7,66.4,30.04,ENE,71,0.0,2.0,78,0.00,,,0.21,LWC2 V0.39 B123,2013-08-17 02:02:00,
2013-08-16 20:07:00,73.8,66.5,30.04,ESE,121,1.0,4.0,78,0.00,,,0.20,LWC2 V0.39 B123,2013-08-17 02:07:00,
2013-08-16 20:12:00,73.9,66.2,30.04,East,101,1.0,4.0,77,0.00,,,0.21,LWC2 V0.39 B123,2013-08-17 02:12:00,
2013-08-16 20:17:00,73.9,66.2,30.04,ESE,114,1.0,2.0,77,0.00,,,0.20,LWC2 V0.39 B123,2013-08-17 02:17:00,
2013-08-16 20:22:00,73.7,66.4,30.04,SE,143,1.0,2.0,78,0.00,,,0.21,LWC2 V0.39 B123,2013-08-17 02:22:00,
2013-08-16 20:27:00,73.4,66.8,30.04,ESE,113,0.0,1.0,80,0.00,,,0.20,LWC2 V0.39 B123,2013-08-17 02:27:00,
2013-08-16 20:32:00,73.1,66.6,30.04,ESE,117,2.0,4.0,80,0.00,,,0.21,LWC2 V0.39 B123,2013-08-17 02:32:00,
2013-08-16 20:37:00,73.1,66.6,30.05,ESE,108,2.0,2.0,80,0.00,,,0.21,LWC2 V0.39 B123,2013-08-17 02:37:00,
2013-08-16 20:42:00,73.1,66.6,30.05,SE,131,3.0,4.0,80,0.00,,,0.21,LWC2 V0.39 B123,2013-08-17 02:42:00,
2013-08-16 20:47:00,73.1,66.9,30.05,ESE,111,0.0,1.0,81,0.00,,,0.21,LWC2 V0.39 B123,2013-08-17 02:47:00,
2013-08-16 20:52:00,72.8,67.0,30.05,ESE,112,0.0,2.0,82,0.00,,,0.21,LWC2 V0.39 B123,2013-08-17 02:52:00,
2013-08-16 20:57:00,72.4,66.6,30.05,ESE,111,0.0,1.0,82,0.00,,,0.21,LWC2 V0.39 B123,2013-08-17 02:57:00,
2013-08-16 21:02:00,72.0,66.5,30.06,East,101,1.0,2.0,83,0.00,,,0.21,LWC2 V0.39 B123,2013-08-17 03:02:00,
2013-08-16 21:07:00,71.9,66.8,30.06,ESE,108,1.0,2.0,84,0.00,,,0.21,LWC2 V0.39 B123,2013-08-17 03:07:00,
2013-08-16 21:12:00,71.8,66.7,30.06,SE,124,1.0,2.0,84,0.00,,,0.21,LWC2 V0.39 B123,2013-08-17 03:12:00,
2013-08-16 21:17:00,71.8,66.7,30.06,ESE,116,1.0,3.0,84,0.00,,,0.21,LWC2 V0.39 B123,2013-08-17 03:17:00,
2013-08-16 21:22:00,71.8,66.7,30.06,SE,128,1.0,3.0,84,0.00,,,0.21,LWC2 V0.39 B123,2013-08-17 03:22:00,
2013-08-16 21:27:00,71.8,66.7,30.06,ESE,115,1.0,2.0,84,0.00,,,0.21,LWC2 V0.39 B123,2013-08-17 03:27:00,
2013-08-16 21:32:00,71.8,67.0,30.06,ESE,115,1.0,3.0,85,0.00,,,0.20,LWC2 V0.39 B123,2013-08-17 03:32:00,
2013-08-16 21:37:00,71.7,66.9,30.06,ESE,111,1.0,2.0,85,0.00,,,0.21,LWC2 V0.39 B123,2013-08-17 03:37:00,
2013-08-16 21:42:00,71.6,66.8,30.06,ESE,111,2.0,2.0,85,0.00,,,0.20,LWC2 V0.39 B123,2013-08-17 03:42:00,
2013-08-16 21:47:00,71.5,67.1,30.06,ESE,112,0.0,1.0,86,0.00,,,0.21,LWC2 V0.39 B123,2013-08-17 03:47:00,
2013-08-16 21:52:00,71.2,66.8,30.06,ESE,112,0.0,1.0,86,0.00,,,0.21,LWC2 V0.39 B123,2013-08-17 03:52:00,
2013-08-16 21:57:00,70.9,66.5,30.06,ESE,112,0.0,0.0,86,0.00,,,0.20,LWC2 V0.39 B123,2013-08-17 03:57:00,
2013-08-16 22:01:00,70.7,66.6,30.06,ESE,112,0.0,0.0,87,0.00,,,0.20,LWC2 V0.39 B123,2013-08-17 04:01:00,
2013-08-16 22:02:00,70.6,66.5,30.06,ESE,111,0.0,0.0,87,0.00,,,0.20,LWC2 V0.39 B123,2013-08-17 04:02:00,
2013-08-16 22:06:00,70.4,66.7,30.06,ESE,111,1.0,1.0,88,0.00,,,0.20,LWC2 V0.39 B123,2013-08-17 04:06:00,
2013-08-16 22:07:00,70.3,66.6,30.06,ESE,111,0.0,2.0,88,0.00,,,0.21,LWC2 V0.39 B123,2013-08-17 04:07:00,
2013-08-16 22:09:00,70.3,66.6,30.06,ESE,111,1.0,2.0,88,0.00,,,0.20,LWC2 V0.39 B123,2013-08-17 04:09:00,
2013-08-16 22:14:00,70.2,66.8,30.06,SE,128,1.0,1.0,89,0.00,,,0.22,LWC2 V0.39 B123,2013-08-17 04:14:00,
2013-08-16 22:19:00,70.1,66.7,30.06,SE,124,0.0,1.0,89,0.00,,,0.22,LWC2 V0.39 B123,2013-08-17 04:19:00,
2013-08-16 22:24:00,70.1,66.7,30.06,ESE,115,0.0,1.0,89,0.00,,,0.22,LWC2 V0.39 B123,2013-08-17 04:24:00,
2013-08-16 22:29:00,70.0,66.6,30.06,ESE,113,0.0,2.0,89,0.00,,,0.22,LWC2 V0.39 B123,2013-08-17 04:29:00,
2013-08-16 22:34:00,69.9,66.8,30.06,ESE,113,0.0,0.0,90,0.00,,,0.21,LWC2 V0.39 B123,2013-08-17 04:34:00,
2013-08-16 22:39:00,69.8,66.7,30.07,ESE,113,0.0,0.0,90,0.00,,,0.21,LWC2 V0.39 B123,2013-08-17 04:39:00,
2013-08-16 22:44:00,69.6,66.5,30.07,ESE,113,0.0,0.0,90,0.00,,,0.22,LWC2 V0.39 B123,2013-08-17 04:44:00,
2013-08-16 22:49:00,69.4,66.3,30.07,ESE,113,0.0,0.0,90,0.00,,,0.20,LWC2 V0.39 B123,2013-08-17 04:49:00,
2013-08-16 22:54:00,69.2,66.5,30.07,ESE,113,0.0,0.0,91,0.00,,,0.22,LWC2 V0.39 B123,2013-08-17 04:54:00,
2013-08-16 22:59:00,69.0,66.3,30.07,ESE,113,0.0,0.0,91,0.00,,,0.00,LWC2 V0.39 B123,2013-08-17 04:59:00,
2013-08-16 23:04:00,68.9,66.2,30.07,ESE,113,0.0,0.0,91,0.00,,,0.00,LWC2 V0.39 B123,2013-08-17 05:04:00,
2013-08-16 23:09:00,68.9,66.2,30.07,ESE,104,0.0,2.0,91,0.00,,,0.00,LWC2 V0.39 B123,2013-08-17 05:09:00,
2013-08-16 23:14:00,69.1,66.0,30.07,East,100,0.0,0.0,90,0.00,,,0.00,LWC2 V0.39 B123,2013-08-17 05:14:00,
2013-08-16 23:19:00,69.3,66.2,30.07,ESE,119,2.0,2.0,90,0.00,,,0.00,LWC2 V0.39 B123,2013-08-17 05:19:00,
2013-08-16 23:24:00,69.3,65.9,30.07,ESE,108,0.0,1.0,89,0.00,,,0.00,LWC2 V0.39 B123,2013-08-17 05:24:00,
2013-08-16 23:29:00,69.2,65.8,30.07,ESE,110,0.0,1.0,89,0.00,,,0.00,LWC2 V0.39 B123,2013-08-17 05:29:00,
2013-08-16 23:34:00,69.2,65.8,30.07,East,101,0.0,0.0,89,0.00,,,0.00,LWC2 V0.39 B123,2013-08-17 05:34:00,
2013-08-16 23:39:00,69.2,65.5,30.07,ESE,114,0.0,2.0,88,0.00,,,0.00,LWC2 V0.39 B123,2013-08-17 05:39:00,
2013-08-16 23:44:00,69.1,65.4,30.07,ESE,119,0.0,2.0,88,0.00,,,0.00,LWC2 V0.39 B123,2013-08-17 05:44:00,
2013-08-16 23:49:00,69.2,65.2,30.07,ESE,104,1.0,2.0,87,0.00,,,0.00,LWC2 V0.39 B123,2013-08-17 05:49:00,
2013-08-16 23:54:00,69.2,65.2,30.07,East,101,2.0,3.0,87,0.00,,,0.00,LWC2 V0.39 B123,2013-08-17 05:54:00,
2013-08-16 23:59:00,69.2,65.2,30.07,SE,128,2.0,3.0,87,0.00,,,0.00,LWC2 V0.39 B123,2013-08-17 05:59:00,